This is the latest recevied weather packets stored in our database for station/object F5SHD-10. If no packets are shown the sender has not sent any weather packets the latest 10 day(s).
| Time | Temp. | Humidity | Pressure | Rain* | Wind** | Luminosity | Snow |
|---|---|---|---|---|---|---|---|
| 1778091820 | 18.89° C | 54% | 1014.8 hPa | - | - | - | - |
| 1778090919 | 18.89° C | 54% | 1014.6 hPa | - | - | - | - |
| 1778090019 | 19.44° C | 53% | 1014.6 hPa | - | - | - | - |
| 1778089119 | 18.89° C | 54% | 1014.5 hPa | - | - | - | - |
| 1778088219 | 18.89° C | 54% | 1014.4 hPa | - | - | - | - |
| 1778087319 | 18.89° C | 55% | 1014.3 hPa | - | - | - | - |
| 1778086419 | 18.89° C | 56% | 1014.3 hPa | - | - | - | - |
| 1778085519 | 18.89° C | 56% | 1014.3 hPa | - | - | - | - |
| 1778084619 | 18.89° C | 56% | 1014.2 hPa | - | - | - | - |
| 1778083718 | 18.33° C | 56% | 1014.1 hPa | - | - | - | - |
| 1778082818 | 15° C | 67% | 1014.3 hPa | - | - | - | - |
| 1778015232 | 16.67° C | 62% | 1014.8 hPa | - | - | - | - |
| 1778014332 | 16.67° C | 62% | 1014.9 hPa | - | - | - | - |
| 1778013432 | 17.22° C | 62% | 1014.9 hPa | - | - | - | - |
| 1778012532 | 17.22° C | 61% | 1014.7 hPa | - | - | - | - |
| 1778011632 | 17.22° C | 60% | 1014.5 hPa | - | - | - | - |
| 1778010732 | 17.22° C | 61% | 1014.4 hPa | - | - | - | - |
| 1778009832 | 17.22° C | 60% | 1014.3 hPa | - | - | - | - |
| 1778008931 | 17.22° C | 60% | 1014.1 hPa | - | - | - | - |
| 1778008031 | 17.78° C | 60% | 1014.1 hPa | - | - | - | - |
| 1778007131 | 17.78° C | 59% | 1014.1 hPa | - | - | - | - |
| 1778006231 | 18.33° C | 58% | 1013.8 hPa | - | - | - | - |
| 1778005331 | 18.33° C | 58% | 1013.8 hPa | - | - | - | - |
| 1778004431 | 18.33° C | 58% | 1013.7 hPa | - | - | - | - |
| 1778003531 | 18.33° C | 58% | 1013.8 hPa | - | - | - | - |
* Rain since midnight (hover to see other rain measurements)
** Current wind speed in m/s (hover to see current wind gust speed)